Location: La Vergne
(36.0160°N, 86.5820°W)
Time: 21:22:56
(UTC-05:00)

Daily predictions for brighter satellites

Satellite Brightness Start Highest point End
(mag) Time Altitude Azimuth Time Altitude Azimuth Time Altitude Azimuth
Lacrosse 5 3.6 18:59:01 10° WNW 19:03:34 34° WSW 19:08:06 10° S
Cosmos 2228 3.4 19:01:26 10° SSE 19:05:33 42° E 19:09:39 10° NNE
YAOGAN 1 3.9 19:05:43 10° S 19:09:51 44° W 19:14:00 10° NNW
SJ-6B 4.0 19:08:56 10° SE 19:12:09 23° ENE 19:15:18 10° NNE
Resurs 01 Rocket 3.4 19:14:26 10° E 19:16:36 14° ENE 19:18:47 10° NE
Cosmos 1606 Rocket 4.1 19:15:22 10° SSW 19:19:40 64° W 19:23:58 10° N
Cosmos 1356 Rocket 4.1 19:17:12 10° N 19:21:08 34° ENE 19:25:04 10° SE
H-2A R/B 3.3 19:20:40 10° SE 19:24:03 34° ENE 19:27:29 10° N
Cosmos 1953 Rocket 3.5 19:20:50 10° N 19:25:11 89° W 19:29:30 10° S
Cosmos 2184 Rocket 4.2 19:19:15 10° SSE 19:25:16 50° E 19:31:22 10° NNE
Cosmos 482 Debris 3.7 19:21:18 10° NW 19:25:21 78° SW 19:27:39 12° SE
Cosmos 2058 Rocket 3.0 19:21:09 10° S 19:25:29 82° E 19:29:53 10° N
Thor Agena Rocket 3.5 19:20:55 10° NNE 19:26:11 81° ESE 19:31:21 10° SSW
FENGYUN 3A 3.6 19:23:08 10° SSE 19:28:28 83° ENE 19:33:52 10° N
Cosmos 1656 Rocket 3.8 19:23:41 10° NNW 19:29:13 56° ENE 19:34:40 10° SE
NOAA 12 4.3 19:25:39 10° S 19:30:53 78° WSW 19:36:10 10° NNW
Milstar 3 Cent rocket 3.3 19:34:57 10° SW 19:39:36 26° S 19:42:10 17° SE
Meteor 1-22 Rocket 4.2 19:34:40 10° S 19:40:21 64° E 19:45:49 10° NNE
USA 234 4.1 19:35:49 10° SSE 19:42:07 50° SW 19:48:27 10° NW
Cosmos 304 Rocket 4.1 19:37:53 10° SSW 19:42:38 69° WNW 19:47:26 10° NNE
COSMOS 2406 3.1 19:37:11 10° SSW 19:42:50 75° ESE 19:48:34 10° NNE
Meteor 2-5 Rocket 3.8 19:37:36 10° N 19:43:27 86° W 19:49:10 10° S
Cosmos 1766 3.2 19:40:43 10° S 19:44:36 62° E 19:48:28 10° NNE
OAO 3 Copernicus 4.3 19:40:14 10° W 19:45:18 80° S 19:48:28 23° E
BREEZE-M (TANK) 3.8 19:30:41 10° NW 19:45:18 74° NNE 19:48:01 22° ESE
Cosmos 2327 Rocket 4.4 19:39:19 10° S 19:45:23 67° E 19:51:25 10° NNE
ISS -3.5 19:42:47 10° SSW 19:45:54 43° SE 19:47:03 30° E
Cosmos 1707 3.6 19:42:24 10° NNW 19:46:14 52° W 19:50:03 10° S
Cosmos 990 Rocket 4.5 19:41:28 10° NNW 19:46:33 62° WSW 19:51:36 10° S
Cosmos 1544 3.0 19:44:19 10° S 19:47:51 55° E 19:51:23 10° NNE
Cosmos 1378 4.3 19:50:09 10° NNW 19:53:46 45° W 19:57:22 10° SSW
FengYun 1-2 T 4.2 19:48:32 10° SSE 19:54:09 87° ENE 19:59:45 10° NNW
Cosmos 1125 Rocket 3.9 19:49:20 10° N 19:54:22 42° ENE 19:57:05 24° ESE
BREEZE-M DEB (TANK) 4.0 19:39:48 10° WSW 19:55:38 82° NNW 19:59:22 17° NE
Cosmos 372 Rocket 4.4 19:53:52 10° N 19:58:48 40° ENE 20:00:50 29° ESE
Cosmos 1758 4.1 19:59:36 32° ENE 19:59:36 32° ENE 20:02:41 10° NNE
In-Cosmos 22 4.2 19:53:35 10° N 19:59:17 65° E 20:04:59 10° SSE
Envisat 3.7 19:57:59 28° ESE 19:59:31 33° ENE 20:04:02 10° N
Geosat 4.3 19:54:40 10° SSE 19:59:40 70° WSW 20:04:41 10° NNW
ALOS 3.7 19:56:31 10° SSW 20:00:52 39° W 20:05:15 10° NNW
ATLAS CENTAUR R/B 3.1 19:55:01 10° NW 20:07:16 89° NNE 20:09:50 29° SE
GEOS 3 Rocket 4.3 20:11:55 33° SE 20:11:55 33° SE 20:16:19 10° S
ATLAS 2AS CENTAUR R/B 4.2 20:11:23 10° NNW 20:17:33 23° NE 20:19:38 21° ENE
Cosmos 1805 3.2 20:14:05 10° S 20:17:59 86° W 20:21:54 10° N
CZ-2D R/B 3.2 20:23:20 49° S 20:24:16 79° WSW 20:28:05 10° NNW
Cosmos 1900 4.3 20:19:44 10° SSW 20:24:48 88° WNW 20:29:59 10° NNE
SL-27 R/B 3.2 20:21:15 10° SSW 20:30:14 - NNE 20:23:47 44° SSW
NOSS 3-1 (A) 4.1 20:19:38 10° NNW 20:27:29 82° WSW 20:33:24 22° SSE
Resurs 1-3 3.4 20:28:09 65° SE 20:28:44 80° ENE 20:33:09 10° N
Cosmos 2154 Rocket 3.9 20:24:16 10° S 20:30:28 89° W 20:36:46 10° N
Yuri Rocket 4.3 20:30:10 10° WSW 20:33:26 28° SSW 20:33:26 28° SSW
Cosmos 2341 Rocket 3.8 20:36:26 10° S 20:42:38 80° E 20:48:51 10° N
Cosmos 1953 4.0 20:53:14 27° N 20:53:14 27° N 20:55:14 10° N
Resurs 01 Rocket 2.4 20:51:54 44° SW 20:52:38 49° W 20:56:55 10° NNW
FALCON 9 R/B 2.2 20:51:32 10° W 20:55:10 73° S 20:55:16 72° S
Cosmos 1697 Rocket 4.4 20:51:42 10° N 20:54:09 20° NNE 20:54:09 20° NNE
Cosmos 1980 Rocket 4.4 20:54:17 10° NNE 20:55:07 12° NNE 20:55:07 12° NNE
GP-B 4.4 20:55:10 10° NNW 20:59:19 40° W 21:01:04 27° SW
Nadezhda 3 Rocket 4.5 20:58:33 10° NNW 21:04:42 58° W 21:07:52 29° SSW
Meteor 2-21 4.5 21:06:16 68° NNE 21:06:16 68° NNE 21:11:34 10° N
Spot 2 Rocket 4.3 21:05:05 43° SW 21:05:56 47° W 21:10:49 10° NNW
Cosmos 2285 Rocket 4.0 21:04:51 10° SSW 21:11:16 83° WNW 21:17:45 10° NNE
ATLAS 2AS CENTAUR R/B 3.7 22:01:39 10° NNW 22:07:04 48° NW 22:07:04 48° NW
